AMAZONAS 5              
1 42934U 17053A   19258.12757892 -.00000293  00000-0  00000+0 0  9998
2 42934   0.0434 319.2811 0002129 232.9457 146.5061  1.00273007  7387
BREEZE-M R/B            
1 42935U 17053B   19256.98804173 -.00000117  00000-0  00000+0 0  9991
2 42935  22.7183 153.5830 5930998 242.6889  46.0328  2.19136857 16041
BREEZE-M DEB [TANK]     
1 42936U 17053C   19257.79043431  .00002165  00000-0  32595-3 0  9996
2 42936  49.4966  76.9095 5231041 122.8713 298.5241  5.25415437 38468